Kezdőlap
METAR-TAF:

METAR-TAF

Repülőterek :

Faribault Municipal Airport

Faribault, Minnesota, Amerikai Egyesült Államok

földrajzi szélesség: 44-20N, földrajzi hosszúság: 093-19W, magasság: 322 m

Jelenlegi meteorológiai megfigyelések

A jelentés 45 perccel ezelõtt készült, 17:55 UTC
Nyugat-északnyugati szél 5 kt
Hőmérséklet 29°C
Páratartalom 27%
Légköri nyomás 1011 hPa
Látótávolság: 16.1 km
Derült ég

METAR: KFBL 181755Z AUTO 29005KT 10SM CLR 29/08 A2985 RMK AO2

Idő: 13:40 (18:40 UTC)


TAF: hiányzik

Meteorológiai megfigyelések és előrejelzések több, mint 4000 repülőtéren (METAR és TAF jelentéseket).

A térképen piros és sárga pontok jelzik az elérhető meteorológiai állomásokat.

Mozgassa az egeret a pont fölött, hogy megjelenjen az állomás neve.

Azután kattintson az időjárási megfigyelések és előrejelzések megtekintéséhez.

A térkép megváltoztatása: kattintson a fekete keresztel jelölt zöld gombra ráközelítéshez, a vonallal jelölt zöld gombra távolításhoz, vagy a zöld nyilakra a szomszédos térképek eléréséhez.


METAR-TAF: